Date String (YYYY-MM-DD hh:mm:ss) UTC,Instrument flags,Ambient pressure (hPa),Sample flow (lpm),Bypass flow (lpm),Sample temperature (°C),Ambient temperature (°C),ASC tube jacket temperature (°C),LED temperature (°C),Box temperature (°C),Sample RH (%),Span deviation,Mass concentration (μg/m³),Mass concentration (μg/m³),Mass concentration (μg/m³)
DateTimeUTC,F1_M11,P_M11,Q1_M11,Q2_M11,T1_M11,T2_M11,T3_M11,T4_M11,T5_M11,U1_M11,ZSPAN_M11,X2_M11,X0_M11,X1_M11
2022-08-19 23:00:00,,0827.4,5.01,0.00,29.8,28.0,00.0,38.6,31.6,24.8,0000.0,0007.58,0017.04,0006.39
2022-08-19 23:01:00,,0827.4,4.99,0.00,29.8,28.2,00.0,38.6,31.7,24.6,0000.0,0007.60,0016.29,0006.39
2022-08-19 23:02:00,,0827.4,5.01,0.00,29.8,28.4,00.0,38.6,31.7,24.6,0000.0,0007.60,0016.79,0006.38
2022-08-19 23:03:00,,0827.4,4.99,0.00,29.9,28.6,00.0,38.6,31.8,24.4,0000.0,0007.60,0015.77,0006.37
2022-08-19 23:04:00,,0827.4,5.00,0.00,29.9,28.7,00.0,38.6,31.9,24.4,0000.0,0007.65,0015.47,0006.37
2022-08-19 23:05:00,,0827.4,5.00,0.00,30.0,28.9,00.0,38.7,32.0,24.7,0000.0,0007.61,0015.29,0006.36
2022-08-19 23:06:00,,0827.4,5.00,0.00,30.0,29.1,00.0,38.7,32.0,24.5,0000.0,0007.60,0015.63,0006.36
2022-08-19 23:07:00,,0827.4,5.00,0.00,30.1,29.1,00.0,38.7,32.1,24.6,0000.0,0007.62,0016.01,0006.37
2022-08-19 23:08:00,,0827.4,5.00,0.00,30.1,28.5,00.0,38.7,31.9,24.5,0000.0,0007.67,0016.46,0006.38
2022-08-19 23:09:00,,0827.4,5.01,0.00,30.0,27.9,00.0,38.6,31.7,24.5,0000.0,0007.68,0016.35,0006.39
2022-08-19 23:10:00,,0827.4,5.01,0.00,29.9,27.7,00.0,38.6,31.7,24.8,0000.0,0007.64,0016.04,0006.40
2022-08-19 23:11:00,,0827.4,4.99,0.00,29.9,27.8,00.0,38.6,31.6,24.9,0000.0,0007.54,0015.73,0006.40
2022-08-19 23:12:00,,0827.4,5.00,0.00,29.8,28.0,00.0,38.6,31.6,25.0,0000.0,0007.51,0016.55,0006.42
2022-08-19 23:13:00,,0827.4,5.00,0.00,29.8,28.1,00.0,38.6,31.7,25.0,0000.0,0007.55,0016.92,0006.42
2022-08-19 23:14:00,,0827.4,5.00,0.00,29.9,28.3,00.0,38.6,31.7,24.8,0000.0,0007.58,0016.49,0006.42
2022-08-19 23:15:00,,0827.4,4.99,0.00,29.9,28.5,00.0,38.6,31.8,24.9,0000.0,0007.67,0017.31,0006.43
2022-08-19 23:16:00,,0827.5,5.00,0.00,29.9,28.7,00.0,38.7,31.9,24.5,0000.0,0007.72,0017.99,0006.43
2022-08-19 23:17:00,,0827.5,5.00,0.00,30.0,28.9,00.0,38.7,32.0,24.3,0000.0,0007.71,0018.54,0006.44
2022-08-19 23:18:00,,0827.5,5.00,0.00,30.0,29.0,00.0,38.7,32.0,24.5,0000.0,0007.74,0018.44,0006.46
2022-08-19 23:19:00,,0827.5,5.00,0.00,30.1,28.9,00.0,38.7,32.0,24.5,0000.0,0007.76,0017.93,0006.49
2022-08-19 23:20:00,,0827.4,5.00,0.00,30.0,28.2,00.0,38.7,31.7,24.4,0000.0,0007.77,0018.04,0006.50
2022-08-19 23:21:00,,0827.4,4.99,0.00,29.9,27.6,00.0,38.6,31.6,24.5,0000.0,0007.83,0018.24,0006.52
2022-08-19 23:22:00,,0827.4,5.00,0.00,29.9,27.6,00.0,38.6,31.6,24.6,0000.0,0007.91,0018.15,0006.55
2022-08-19 23:23:00,,0827.4,5.00,0.00,29.8,27.7,00.0,38.6,31.5,25.1,0000.0,0007.93,0017.80,0006.56
2022-08-19 23:24:00,,0827.5,4.99,0.00,29.8,27.9,00.0,38.6,31.6,25.2,0000.0,0007.95,0017.46,0006.58
2022-08-19 23:25:00,,0827.5,5.01,0.00,29.8,28.1,00.0,38.6,31.7,24.9,0000.0,0007.93,0017.56,0006.60
2022-08-19 23:26:00,,0827.4,4.99,0.00,29.9,28.3,00.0,38.6,31.7,25.2,0000.0,0007.85,0018.22,0006.61
2022-08-19 23:27:00,,0827.5,5.00,0.00,29.9,28.5,00.0,38.6,31.8,25.2,0000.0,0007.86,0017.80,0006.63
2022-08-19 23:28:00,,0827.4,5.00,0.00,29.9,28.7,00.0,38.7,31.9,24.7,0000.0,0007.94,0017.09,0006.65
2022-08-19 23:29:00,,0827.4,5.00,0.00,30.0,28.9,00.0,38.7,32.0,24.7,0000.0,0007.96,0017.03,0006.65
2022-08-19 23:30:00,,0827.4,5.00,0.00,30.0,29.0,00.0,38.7,32.0,24.8,0000.0,0007.97,0017.38,0006.64
2022-08-19 23:31:00,,0827.4,5.01,0.00,30.1,28.8,00.0,38.7,32.0,25.0,0000.0,0007.96,0017.64,0006.64
2022-08-19 23:32:00,,0827.4,4.99,0.00,30.0,28.1,00.0,38.6,31.8,25.3,0000.0,0008.01,0017.86,0006.63
2022-08-19 23:33:00,,0827.4,5.00,0.00,29.9,27.8,00.0,38.6,31.7,25.6,0000.0,0008.01,0018.33,0006.61
2022-08-19 23:34:00,,0827.4,5.00,0.00,29.9,27.8,00.0,38.6,31.6,24.6,0000.0,0008.03,0018.26,0006.63
2022-08-19 23:35:00,,0827.4,5.01,0.00,29.8,27.9,00.0,38.6,31.6,24.8,0000.0,0008.03,0018.90,0006.66
2022-08-19 23:36:00,,0827.4,5.00,0.00,29.8,28.1,00.0,38.6,31.6,24.9,0000.0,0008.01,0020.33,0006.66
2022-08-19 23:37:00,,0827.4,5.00,0.00,29.8,28.2,00.0,38.6,31.7,25.3,0000.0,0008.04,0019.65,0006.68
2022-08-19 23:38:00,,0827.4,5.00,0.00,29.9,28.4,00.0,38.6,31.8,25.4,0000.0,0008.02,0019.50,0006.69
2022-08-19 23:39:00,,0827.4,5.01,0.00,29.9,28.6,00.0,38.6,31.9,25.0,0000.0,0007.94,0019.00,0006.67
2022-08-19 23:40:00,,0827.4,5.01,0.00,30.0,28.8,00.0,38.7,31.9,25.2,0000.0,0007.91,0018.66,0006.67
2022-08-19 23:41:00,,0827.4,4.99,0.00,30.0,28.9,00.0,38.7,32.0,25.3,0000.0,0007.88,0018.64,0006.65
2022-08-19 23:42:00,,0827.4,5.00,0.00,30.0,29.0,00.0,38.7,32.0,25.4,0000.0,0007.90,0019.31,0006.66
2022-08-19 23:43:00,,0827.4,5.00,0.00,30.0,28.6,00.0,38.7,31.9,26.0,0000.0,0007.87,0020.01,0006.66
2022-08-19 23:44:00,,0827.4,5.00,0.00,30.0,27.9,00.0,38.6,31.7,25.9,0000.0,0007.82,0019.44,0006.66
2022-08-19 23:45:00,,0827.4,5.00,0.00,29.9,27.7,00.0,38.6,31.7,25.7,0000.0,0007.79,0018.81,0006.64
2022-08-19 23:46:00,,0827.4,5.01,0.00,29.8,27.7,00.0,38.6,31.6,25.6,0000.0,0007.77,0017.81,0006.62
2022-08-19 23:47:00,,0827.4,4.99,0.00,29.8,27.9,00.0,38.6,31.5,26.2,0000.0,0007.79,0016.52,0006.60
2022-08-19 23:48:00,,0827.4,5.01,0.00,29.8,28.0,00.0,38.6,31.6,26.0,0000.0,0007.78,0016.77,0006.58
2022-08-19 23:49:00,,0827.4,5.00,0.00,29.8,28.2,00.0,38.6,31.7,25.8,0000.0,0007.77,0016.95,0006.56
2022-08-19 23:50:00,,0827.4,4.99,0.00,29.9,28.4,00.0,38.6,31.8,25.7,0000.0,0007.77,0017.22,0006.56
2022-08-19 23:51:00,,0827.4,5.00,0.00,29.9,28.6,00.0,38.6,31.8,25.8,0000.0,0007.75,0017.57,0006.55
2022-08-19 23:52:00,,0827.5,5.01,0.00,29.9,28.8,00.0,38.7,31.9,26.0,0000.0,0007.79,0017.56,0006.55
2022-08-19 23:53:00,,0827.4,5.00,0.00,30.0,28.9,00.0,38.7,32.0,25.7,0000.0,0007.79,0017.08,0006.55
2022-08-19 23:54:00,,0827.4,5.00,0.00,30.0,29.0,00.0,38.7,32.0,25.7,0000.0,0007.83,0016.42,0006.55
2022-08-19 23:55:00,,0827.5,4.99,0.00,30.1,28.8,00.0,38.7,32.0,26.1,0000.0,0007.86,0017.06,0006.55
2022-08-19 23:56:00,,0827.4,5.01,0.00,30.0,28.1,00.0,38.7,31.8,25.8,0000.0,0007.89,0017.42,0006.56
2022-08-19 23:57:00,,0827.4,4.99,0.00,29.9,27.7,00.0,38.6,31.7,26.0,0000.0,0007.90,0017.90,0006.56
2022-08-19 23:58:00,,0827.4,5.01,0.00,29.9,27.7,00.0,38.6,31.6,26.5,0000.0,0007.89,0018.70,0006.56
2022-08-19 23:59:00,,0827.4,5.01,0.00,29.8,27.8,00.0,38.6,31.6,27.0,0000.0,0007.93,0019.05,0006.57
